Location: Newark
(25.6108°S, 54.5803°W)
Time: 16:10:08
(UTC+00:00)

Courier 1B Rocket - Pass Details

Date: 03 November 2020
Orbit: 920 x 1202 km, 28.2° (Epoch: 22 November)

Event Time Altitude Azimuth Distance (km) Brightness Sun altitude
Rises 10:58:48 0° 259° (W) 3,962 7.6 28.1°
Reaches altitude 10° 11:01:40 10° 258° (WSW) 2,962 7.1 28.7°
Maximum altitude 11:08:57 83° 169° (S) 1,055 5.8 30.4°
Drops below altitude 10° 11:15:40 10° 81° (E) 2,746 8.8 31.9°
Sets 11:18:14 0° 80° (E) 3,658 9.1 32.5°
